Tracking 31027 objects as of 19-Jul-2025
HD Live streaming from Space Station
objects crossing your sky now

SL-12 R/B(2)

Track SL-12 R/B(2) now!


NORAD ID: 28256
Int'l Code: 2004-010F
Perigee: 35,737.0 km
Apogee: 35,950.9 km
Inclination: 13.3 °
Period: 1,438.7 minutes
Semi major axis: 42214 km
RCS: 0.003 m2 (small)
Launch date: March 27, 2004
Source: Commonwealth of Independent States (former USSR) (CIS)
Launch site: TYURATAM MISSILE AND SPACE COMPLEX (TTMTR)

Note: This is a ROCKET BODY
Your satellite tracking list
STARLINK-1578
Track 1 satellite(s)




NASA's NSSDC Master Catalog

Two Line Element Set (TLE):
1 28256U 04010F   25199.06889959  .00000054  00000-0  00000-0 0  9997
2 28256  13.3263  23.6066 0025326   6.7354 350.2246  1.00092963 77319
Source of the keplerian elements: AFSPC